Weather in Urdzhar

Kazakhstan     47°05′14″N   81°37′51″E
temp.,
°C
wind,
m/s
gust,
m/s
humid.,
%
clouds,
%
prec.,
mm/h
press.,
hPa
HPBL,
m
20 april, tue
tue2000:00+11e2480100 1.2 1013103
03:00+10ese3580100 0.1 1012131
06:00+10se2481100 0.3 1012163
09:00+11s2273100 0.4 1012346
12:00+12sw1264100 0.5 1011745
15:00+10nne3371100 0.5 1011451
18:00+5nne5677100 3.8 1013177
21:00+4nne4574100 1.0 1015209
21 april, wed
wed2100:00+2nne5774100 1.6 1014194
03:00+2nne3469100 0.1 1014240
06:00+2ne3572100 0.3 1014189
09:00+4ne3466100 0.0 1014299
12:00+6ne3360100 0.0 1014622
15:00+5n2350100 0.2 1016583
18:00+4ssw1253100 0.2 1020532
21:00+2nne4748100 0.0 1023207
22 april, thu
thu2200:000n23490 0.0 102645
03:00−1nne23460 0.0 102752
06:000nne11491 0.0 102918
09:00+3sse113820 0.0 1030817
12:00+6wnw1335100 0.0 10292046
15:00+7nnw443599 0.1 10292139
18:00+5n563838 0.1 10321644
21:00+1nne245325 0.0 1035139
23 april, fri
fri2300:000n355322 0.0 1035147
03:00−1n23561 0.0 103571
06:00−1n34525 0.0 1036161
09:00+2w32353 0.0 10371442
12:00+5wsw4430100 0.0 10352411
15:00+6nw443294 0.0 10342191
18:00+6nnw453114 0.0 10352023
21:00+2n35547 0.0 1036115
24 april, sat
sat2400:000n23601 0.0 103553
03:000ne11564 0.0 103520
06:000ene22545 0.0 103539
09:00+3se114021 0.0 1034996
12:00+6wsw2230100 0.0 10322369
15:00+7w332975 0.1 10312381
18:00+7nne543215 0.1 10311909
21:00+3nne35493 0.0 103393